Weather History for Independence, KS

Change the Weather History Date:

Friday, December 27, 2013

  Actual Average (KCFV) Record (KCFV)
Temperature  
Mean Temperature 38 °F -  
Max Temperature 51 °F 43 °F 71 °F (2005)
Min Temperature 26 °F 23 °F 12 °F (2010)
Degree Days  
Heating Degree Days 26    
Moisture  
Dew Point 30 °F    
Average Humidity 79    
Maximum Humidity 100    
Minimum Humidity 50    
Precipitation  
Precipitation 0.00 in - - ()
Sea Level Pressure  
Sea Level Pressure 30.32 in    
Wind  
Wind Speed 5 mph (South)    
Max Wind Speed 12 mph    
Max Gust Speed -    
Visibility 10 miles    
Events      
Averages and records for this station are not official NWS values.
T = Trace of Precipitation, MM = Missing Value Source: NWS Daily Summary

Daily Weather History Graph

Daily Weather History Graph

Search for Another Location

Airport:

Trip Planner

Search our weather history database for the weather conditions in past years. The results will help you decide how hot, cold, wet, or windy it might be!

Date:

Astronomy

Dec. 27, 2013 Rise Set
Actual Time 7:35 AM CST 5:13 PM CST
Civil Twilight 7:06 AM CST 5:42 PM CST
Nautical Twilight 6:33 AM CST 6:14 PM CST
Astronomical Twilight 6:02 AM CST 6:46 PM CST
Moon 2:12 AM CST (12/27) 1:20 PM CST (12/27)
Length of Visible Light 10h 35m
Length of Day
9h 37m
Waning Crescent, 28% of the Moon is Illuminated
Dec 27
Waning Crescent
Jan 1
New
Jan 7
First Quarter
Jan 15
Full
Jan 23
Last Quarter

Hourly Weather History & Observations

Time (CST) Temp. Windchill Dew Point Humidity Pressure Visibility Wind Dir Wind Speed Gust Speed Precip Events Conditions
12:15 AM 30.2 °F 26.7 °F 28.4 °F 93% 30.33 in 7.0 mi South 3.5 mph - N/A   Clear
12:35 AM 30.2 °F 25.4 °F 28.4 °F 93% 30.33 in 7.0 mi South 4.6 mph - N/A   Clear
12:55 AM 30.2 °F 25.4 °F 28.4 °F 93% 30.33 in 10.0 mi South 4.6 mph - N/A   Clear
1:15 AM 28.4 °F 22.2 °F 28.4 °F 100% 30.33 in 10.0 mi South 5.8 mph - N/A   Clear
1:35 AM 30.2 °F 25.4 °F 28.4 °F 93% 30.33 in 10.0 mi South 4.6 mph - N/A   Clear
1:55 AM 30.2 °F 25.4 °F 28.4 °F 93% 30.34 in 10.0 mi South 4.6 mph - N/A   Clear
2:15 AM 30.2 °F 24.3 °F 28.4 °F 93% 30.33 in 10.0 mi South 5.8 mph - N/A   Clear
2:35 AM 30.2 °F 25.4 °F 26.6 °F 86% 30.33 in 10.0 mi South 4.6 mph - N/A   Clear
2:55 AM 30.2 °F 24.3 °F 26.6 °F 86% 30.34 in 10.0 mi South 5.8 mph - N/A   Clear
3:15 AM 30.2 °F - 28.4 °F 93% 30.35 in 10.0 mi Calm Calm - N/A   Clear
3:35 AM 30.2 °F - 28.4 °F 93% 30.35 in 10.0 mi Calm Calm - N/A   Clear
3:55 AM 30.2 °F - 26.6 °F 86% 30.35 in 10.0 mi Calm Calm - N/A   Clear
4:15 AM 28.4 °F 22.2 °F 24.8 °F 86% 30.35 in 10.0 mi South 5.8 mph - N/A   Clear
4:35 AM 28.4 °F 23.3 °F 26.6 °F 93% 30.34 in 10.0 mi South 4.6 mph - N/A   Clear
4:55 AM 28.4 °F 23.3 °F 26.6 °F 93% 30.34 in 10.0 mi South 4.6 mph - N/A   Clear
5:15 AM 28.4 °F 23.3 °F 26.6 °F 93% 30.34 in 10.0 mi South 4.6 mph - N/A   Clear
5:35 AM 28.4 °F 22.2 °F 26.6 °F 93% 30.34 in 10.0 mi South 5.8 mph - N/A   Clear
5:55 AM 26.6 °F 20.0 °F 26.6 °F 100% 30.34 in 10.0 mi South 5.8 mph - N/A   Clear
6:15 AM 26.6 °F 22.6 °F 24.8 °F 93% 30.35 in 10.0 mi South 3.5 mph - N/A   Clear
6:35 AM 28.4 °F 23.3 °F 26.6 °F 93% 30.35 in 10.0 mi South 4.6 mph - N/A   Clear
6:55 AM 28.4 °F 24.6 °F 26.6 °F 93% 30.35 in 10.0 mi South 3.5 mph - N/A   Clear
7:15 AM 28.4 °F - 26.6 °F 93% 30.35 in 10.0 mi Calm Calm - N/A   Clear
7:35 AM 26.6 °F 20.0 °F 24.8 °F 93% 30.35 in 10.0 mi South 5.8 mph - N/A   Clear
7:55 AM 28.4 °F 22.2 °F 26.6 °F 93% 30.36 in 10.0 mi SSE 5.8 mph - N/A   Clear
8:15 AM 28.4 °F 21.2 °F 26.6 °F 93% 30.36 in 10.0 mi South 6.9 mph - N/A   Clear
8:35 AM 30.2 °F 26.7 °F 28.4 °F 93% 30.36 in 10.0 mi South 3.5 mph - N/A   Clear
8:55 AM 30.2 °F - 28.4 °F 93% 30.37 in 10.0 mi Calm Calm - N/A   Clear
9:15 AM 32.0 °F - 30.2 °F 93% 30.38 in 10.0 mi Calm Calm - N/A   Clear
9:35 AM 32.0 °F - 30.2 °F 93% 30.38 in 10.0 mi Calm Calm - N/A   Clear
9:55 AM 33.8 °F - 32.0 °F 93% 30.38 in 10.0 mi Calm Calm - N/A   Clear
10:15 AM 35.6 °F - 32.0 °F 87% 30.39 in 10.0 mi Calm Calm - N/A   Clear
10:35 AM 37.4 °F 34.9 °F 32.0 °F 81% 30.38 in 10.0 mi WSW 3.5 mph - N/A   Clear
10:55 AM 39.2 °F 37.0 °F 32.0 °F 75% 30.38 in 10.0 mi SSW 3.5 mph - N/A   Clear
11:15 AM 41.0 °F 39.0 °F 32.0 °F 70% 30.38 in 10.0 mi SSW 3.5 mph - N/A   Clear
11:35 AM 41.0 °F 38.0 °F 32.0 °F 70% 30.37 in 10.0 mi South 4.6 mph - N/A   Clear
11:55 AM 42.8 °F 40.1 °F 33.8 °F 70% 30.36 in 10.0 mi South 4.6 mph - N/A   Clear
12:15 PM 44.6 °F 41.4 °F 33.8 °F 66% 30.35 in 10.0 mi South 5.8 mph - N/A   Clear
12:35 PM 44.6 °F 40.7 °F 33.8 °F 66% 30.34 in 10.0 mi South 6.9 mph - N/A   Clear
12:55 PM 46.4 °F 44.3 °F 33.8 °F 62% 30.33 in 10.0 mi South 4.6 mph - N/A   Clear
1:15 PM 48.2 °F - 33.8 °F 58% 30.32 in 10.0 mi South 8.1 mph - N/A   Clear
1:35 PM 50.0 °F - 35.6 °F 58% 30.31 in 10.0 mi South 8.1 mph - N/A   Clear
1:55 PM 50.0 °F - 33.8 °F 54% 30.31 in 10.0 mi South 8.1 mph - N/A   Clear
2:15 PM 51.8 °F - 35.6 °F 54% 30.30 in 10.0 mi South 9.2 mph - N/A   Clear
2:35 PM 51.8 °F - 35.6 °F 54% 30.29 in 10.0 mi South 9.2 mph - N/A   Clear
2:55 PM 51.8 °F - 33.8 °F 50% 30.29 in 10.0 mi South 10.4 mph - N/A   Clear
3:15 PM 51.8 °F - 33.8 °F 50% 30.29 in 10.0 mi South 11.5 mph - N/A   Clear
3:35 PM 51.8 °F - 33.8 °F 50% 30.30 in 10.0 mi South 9.2 mph - N/A   Clear
3:55 PM 51.8 °F - 35.6 °F 54% 30.30 in 10.0 mi South 8.1 mph - N/A   Clear
4:15 PM 51.8 °F - 35.6 °F 54% 30.30 in 10.0 mi South 5.8 mph - N/A   Clear
4:35 PM 50.0 °F - 35.6 °F 58% 30.30 in 10.0 mi South 6.9 mph - N/A   Clear
4:55 PM 44.6 °F 40.2 °F 35.6 °F 71% 30.30 in 10.0 mi South 8.1 mph - N/A   Clear
5:15 PM 44.6 °F 40.2 °F 33.8 °F 66% 30.30 in 10.0 mi South 8.1 mph - N/A   Clear
5:35 PM 42.8 °F 38.0 °F 32.0 °F 66% 30.30 in 10.0 mi South 8.1 mph - N/A   Clear
5:55 PM 44.6 °F 40.7 °F 32.0 °F 61% 30.30 in 10.0 mi South 6.9 mph - N/A   Clear
6:15 PM 42.8 °F 38.6 °F 32.0 °F 66% 30.30 in 10.0 mi South 6.9 mph - N/A   Clear
6:35 PM 42.8 °F 38.6 °F 32.0 °F 66% 30.30 in 10.0 mi South 6.9 mph - N/A   Clear
6:55 PM 41.0 °F 36.4 °F 32.0 °F 70% 30.30 in 10.0 mi South 6.9 mph - N/A   Clear
7:15 PM 41.0 °F 37.1 °F 32.0 °F 70% 30.30 in 10.0 mi South 5.8 mph - N/A   Clear
7:35 PM 41.0 °F 37.1 °F 32.0 °F 70% 30.29 in 10.0 mi South 5.8 mph - N/A   Clear
7:55 PM 41.0 °F 37.1 °F 32.0 °F 70% 30.29 in 10.0 mi South 5.8 mph - N/A   Clear
8:15 PM 39.2 °F 34.2 °F 32.0 °F 75% 30.28 in 10.0 mi South 6.9 mph - N/A   Clear
8:35 PM 39.2 °F 33.6 °F 30.2 °F 70% 30.28 in 10.0 mi South 8.1 mph - N/A   Clear
8:55 PM 37.4 °F 31.4 °F 30.2 °F 75% 30.27 in 10.0 mi South 8.1 mph - N/A   Clear
9:15 PM 35.6 °F 28.6 °F 30.2 °F 81% 30.27 in 10.0 mi South 9.2 mph - N/A   Clear
9:35 PM 35.6 °F 28.6 °F 30.2 °F 81% 30.27 in 10.0 mi South 9.2 mph - N/A   Clear
9:55 PM 35.6 °F 28.6 °F 30.2 °F 81% 30.27 in 10.0 mi South 9.2 mph - N/A   Clear
10:15 PM 33.8 °F 27.0 °F 30.2 °F 87% 30.27 in 10.0 mi South 8.1 mph - N/A   Clear
10:35 PM 35.6 °F 29.9 °F 30.2 °F 81% 30.27 in 10.0 mi South 6.9 mph - N/A   Clear
10:55 PM 33.8 °F 27.7 °F 30.2 °F 87% 30.27 in 10.0 mi South 6.9 mph - N/A   Clear
11:15 PM 33.8 °F 27.0 °F 30.2 °F 87% 30.27 in 10.0 mi South 8.1 mph - N/A   Clear
11:35 PM 33.8 °F 27.0 °F 30.2 °F 87% 30.27 in 10.0 mi South 8.1 mph - N/A   Clear
11:55 PM 33.8 °F 27.0 °F 30.2 °F 87% 30.26 in 10.0 mi South 8.1 mph - N/A   Clear